This is the latest recevied weather packets stored in our database for station/object KM4NDN. If no packets are shown the sender has not sent any weather packets the latest 10 day(s).
| Time | Temp. | Humidity | Pressure | Rain* | Wind** | Luminosity | Snow |
|---|---|---|---|---|---|---|---|
| 1777760895 | 7.78° C | 50% | 1015.3 hPa | 0 mm | - | 93 W/m² | - |
| 1777760592 | 7.78° C | 48% | 1015.2 hPa | 0 mm | - | 84 W/m² | - |
| 1777760288 | 7.78° C | 51% | 1015.2 hPa | 0 mm | - | 76 W/m² | - |
| 1777759984 | 7.22° C | 55% | 1015.3 hPa | 0 mm | - | 80 W/m² | - |
| 1777759681 | 7.22° C | 53% | 1015.2 hPa | 0 mm | - | 73 W/m² | - |
| 1777759377 | 7.22° C | 52% | 1015.2 hPa | 0 mm | - | 57 W/m² | - |
| 1777759074 | 7.22° C | 52% | 1015.2 hPa | 0 mm | - | 50 W/m² | - |
| 1777758771 | 7.78° C | 52% | 1015.2 hPa | 0 mm | - | 59 W/m² | - |
| 1777758468 | 7.78° C | 50% | 1015.2 hPa | 0 mm | - | 77 W/m² | - |
| 1777758165 | 7.78° C | 51% | 1015.2 hPa | 0 mm | - | 100 W/m² | - |
| 1777757862 | 7.78° C | 50% | 1015.2 hPa | 0 mm | - | 132 W/m² | - |
| 1777757559 | 7.78° C | 49% | 1015.2 hPa | 0 mm | - | 171 W/m² | - |
| 1777757258 | 7.78° C | 51% | 1015.1 hPa | 0 mm | - | 206 W/m² | - |
| 1777756956 | 7.78° C | 50% | 1015.1 hPa | 0 mm | - | 207 W/m² | - |
| 1777756652 | 7.78° C | 54% | 1015.4 hPa | 0 mm | - | 248 W/m² | - |
| 1777756349 | 7.78° C | 52% | 1015.2 hPa | 0 mm | - | 277 W/m² | - |
| 1777756046 | 7.78° C | 54% | 1015.2 hPa | 0 mm | - | 202 W/m² | - |
| 1777755743 | 7.78° C | 54% | 1015.2 hPa | 0 mm | - | 169 W/m² | - |
| 1777755440 | 7.78° C | 53% | 1015.1 hPa | 0 mm | - | 175 W/m² | - |
| 1777755136 | 7.78° C | 53% | 1015.1 hPa | 0 mm | - | 203 W/m² | - |
| 1777754834 | 8.33° C | 51% | 1015.1 hPa | 0 mm | - | 290 W/m² | - |
| 1777754531 | 7.78° C | 54% | 1015 hPa | 0 mm | - | 395 W/m² | - |
| 1777754228 | 7.78° C | 54% | 1015.3 hPa | 0 mm | - | 376 W/m² | - |
| 1777753926 | 7.22° C | 55% | 1015.1 hPa | 0 mm | - | 323 W/m² | - |
| 1777753620 | 7.22° C | 53% | 1015.2 hPa | 0 mm | - | 294 W/m² | - |
* Rain latest hour (hover to see other rain measurements)
** Current wind speed in m/s (hover to see current wind gust speed)